Weather Roundup
Issued by NWS Chicago, IL

Home | Current Version | Previous Version | Graphics & Text | Print | Product List | Glossary On
Versions: 1 2 3 4 5 6 7 8 9 10 11 12 13 14 15 16 17 18 19 20 21 22 23 24 25 26 27 28 29 30 31 32 33 34 35 36 37 38 39 40 41 42 43 44 45 46 47 48 49 50
000
NZUS59 KLOT 262221
HRRLOT

CHICAGO AREA WEATHER ROUNDUP
NATIONAL WEATHER SERVICE CHICAGO/ROMEOVILLE IL
500 PM CDT TUE MAY 26 2015

NOTE: "FAIR" INDICATES FEW OR NO CLOUDS BELOW 12,000 FEET WITH NO
SIGNIFICANT WEATHER AND/OR OBSTRUCTIONS TO VISIBILITY.

* THESE STATIONS ARE NOT UNDER NWS QUALITY CONTROL. THEY ALSO MAY NOT
  REPORT WEATHER SUCH AS PRECIPITATION OR FOG.

ILZ005-006-012>014-019>023-262300-
NORTHEAST ILLINOIS

CITY           SKY/WX    TMP DP  RH WIND       PRES   REMARKS
OHARE          CLOUDY    73  63  70 S18G24    29.75F
MIDWAY         PTSUNNY   76  66  71 SW17G25   29.77S
AURORA         CLOUDY    73  62  68 SW22G30   29.78R
LANSING*       MOSUNNY   76  60  58 SW24G32   29.80S
JOLIET*        CLOUDY    71  66  84 SW10G21   29.81R
WAUKEGAN       PTSUNNY   73  62  68 S16G26    29.73S
DUPAGE AIRPORT LGT RAIN  69  64  84 SW17G29   29.77R
WHEELING       LGT RAIN  73  62  68 SW22G29   29.77R
KANKAKEE*      CLOUDY    72  65  77 SW26G37   29.84R
MORRIS*        PTSUNNY   72  65  78 SW17      29.78F
LEWIS AIRPORT* LGT RAIN  68  63  85 SW18G28   29.80R
NORTHERLY IS     N/A     75  62  64 S16         N/A
$$

WIZ051-052-058>065-066-070>072-262300-
SOUTHEAST WISCONSIN

CITY           SKY/WX    TMP DP  RH WIND       PRES   REMARKS
MILWAUKEE      MOSUNNY   76  62  62 SW20      29.70F
KENOSHA*       PTSUNNY   74  62  66 S18G25    29.72F
RACINE*        SUNNY     75  61  61 S20G30    29.73F
BURLINGTON     PTSUNNY   73  60  65 SW20G30   29.71S
WAUKESHA       PTSUNNY   73  61  64 S22G29    29.71F
WEST BEND      MOSUNNY   75  61  60 S17       29.68F
$$

INZ001>003-010>013-019-020-262300-
NORTHWEST INDIANA

CITY           SKY/WX    TMP DP  RH WIND       PRES   REMARKS
GARY*          PTSUNNY   77  64  65 S12G23    29.80F
MICHIGAN CITY* NOT AVBL
RENSSELAER*    NOT AVBL
VALPARAISO     MOSUNNY   76  63  64 SW20G31   29.83S
$$

LMZ740>746-262300-
SOUTHERN LAKE MICHIGAN

STATION/POSITION TIME  SKY/WX   TEMP WIND        PRES    VSBY
                                AIR  DIR/SP/G
                 (UTC)          (F)  (DEG/KT/KT) (MB)    (MI)
HARRISON CRIB    2200            70  200/ 17/ 19   N/A
BURNHAM HARBOR   2200            76  190/ 13/ 19   N/A
CALUMET HARBOR   2100            73  180/  8/ 12   N/A
BURNS HARBOR     2100            72  190/ 18/ 22 1009.8F
MICHIGAN CITY    2200            74  180/ 18/ 22   N/A
$$

ABBREVIATIONS USED IN REMARKS
   TC - TEMPERATURE IN CELSIUS
  WCI - WIND CHILL INDEX
   HX - HEAT INDEX
  VSB - VISIBILITY
$$



USA.gov is the U.S. government's official web portal to all federal, state and local government web resources and services.